Location: Bo?a Wola
(50.4192°N, 19.7966°E)
Time: 22:14:17
(UTC+00:00)

Cosmos 2219 - Visible Passes

Search period start: 19 September 2024 00:00
Search period end: 29 September 2024 00:00
Orbit: 831 x 861 km, 71.1° (Epoch: 19 September)

Date Brightness Start Highest point End Pass type
(mag) Time Alt. Az. Time Alt. Az. Time Alt. Az.
19 Sep 6.1 02:17:20 10° ESE 02:19:18 12° E 02:21:15 10° ENE visible
20 Sep 6.1 02:03:48 10° ESE 02:05:33 11° E 02:07:18 10° ENE visible
20 Sep 3.7 03:42:55 10° SSW 03:48:33 66° ESE 03:54:14 10° NNE visible
21 Sep 6.1 01:50:17 10° ESE 01:51:47 11° E 01:53:18 10° ENE visible
21 Sep 3.7 03:29:10 10° SSW 03:34:46 64° ESE 03:40:27 10° NE visible
22 Sep 6.1 01:36:49 10° ESE 01:38:03 11° E 01:39:16 10° E visible
22 Sep 3.7 03:15:24 10° SSW 03:20:59 63° ESE 03:26:40 10° NE visible
23 Sep 6.1 01:23:27 10° ESE 01:24:17 10° E 01:25:09 10° E visible
23 Sep 3.7 03:01:38 10° SSW 03:07:13 61° ESE 03:12:54 10° NE visible
24 Sep 3.7 02:47:52 10° S 02:53:27 60° ESE 02:59:06 10° NE visible
25 Sep 3.8 02:34:28 12° S 02:39:41 58° ESE 02:45:19 10° NE visible
26 Sep 3.8 02:21:48 18° S 02:25:54 57° ESE 02:31:32 10° NE visible
27 Sep 3.8 02:09:02 26° S 02:12:08 55° ESE 02:17:45 10° NE visible
27 Sep 4.0 03:51:25 10° WSW 03:56:34 34° NW 04:01:47 10° NNE visible
28 Sep 3.8 01:56:10 34° S 01:58:22 54° ESE 02:03:57 10° NE visible
28 Sep 4.0 03:38:06 12° WSW 03:42:47 35° NW 03:48:01 10° NNE visible
